TimePST,TemperatureF,Dew PointF,Humidity,Sea Level PressureIn,VisibilityMPH,Wind Direction,Wind SpeedMPH,Gust SpeedMPH,PrecipitationIn,Events,Conditions,WindDirDegrees,DateUTC
12:54 AM,46.0,35.1,66,30.26,10.0,East,3.5,-,N/A,,Clear,100,2013-12-25 08:54:00
1:54 AM,45.0,34.0,65,30.25,10.0,East,8.1,-,N/A,,Clear,90,2013-12-25 09:54:00
2:54 AM,46.0,34.0,63,30.24,10.0,East,3.5,-,N/A,,Clear,80,2013-12-25 10:54:00
3:54 AM,44.1,33.1,65,30.23,10.0,East,5.8,-,N/A,,Clear,90,2013-12-25 11:54:00
4:54 AM,44.1,33.1,65,30.23,10.0,Calm,Calm,-,N/A,,Clear,0,2013-12-25 12:54:00
5:54 AM,43.0,32.0,65,30.24,10.0,East,3.5,-,N/A,,Clear,90,2013-12-25 13:54:00
6:54 AM,41.0,32.0,70,30.24,10.0,ESE,4.6,-,N/A,,Clear,110,2013-12-25 14:54:00
7:54 AM,44.1,32.0,63,30.25,10.0,East,6.9,-,N/A,,Clear,90,2013-12-25 15:54:00
8:54 AM,54.0,33.1,45,30.25,10.0,East,5.8,-,N/A,,Clear,90,2013-12-25 16:54:00
9:54 AM,57.9,37.9,47,30.27,10.0,Calm,Calm,-,N/A,,Clear,0,2013-12-25 17:54:00
10:54 AM,64.0,37.9,38,30.27,10.0,Calm,Calm,-,N/A,,Clear,0,2013-12-25 18:54:00
11:54 AM,66.9,37.9,34,30.25,10.0,Calm,Calm,-,N/A,,Clear,0,2013-12-25 19:54:00
12:54 PM,71.1,36.0,28,30.23,10.0,WSW,3.5,-,N/A,,Clear,250,2013-12-25 20:54:00
1:54 PM,73.0,35.1,25,30.21,10.0,WSW,3.5,-,N/A,,Clear,250,2013-12-25 21:54:00
2:54 PM,72.0,35.1,26,30.21,10.0,West,4.6,-,N/A,,Clear,280,2013-12-25 22:54:00
3:54 PM,70.0,39.0,32,30.21,10.0,NNE,3.5,-,N/A,,Clear,20,2013-12-25 23:54:00
4:54 PM,63.0,39.0,41,30.21,10.0,Calm,Calm,-,N/A,,Clear,0,2013-12-26 00:54:00
5:54 PM,55.9,36.0,47,30.22,10.0,ESE,3.5,-,N/A,,Clear,110,2013-12-26 01:54:00
6:54 PM,52.0,35.1,53,30.24,10.0,Calm,Calm,-,N/A,,Clear,0,2013-12-26 02:54:00
7:54 PM,51.1,34.0,52,30.25,10.0,ESE,3.5,-,N/A,,Clear,110,2013-12-26 03:54:00
8:54 PM,50.0,33.1,52,30.25,10.0,East,4.6,-,N/A,,Clear,100,2013-12-26 04:54:00
9:54 PM,50.0,33.1,52,30.25,10.0,ESE,3.5,-,N/A,,Clear,110,2013-12-26 05:54:00
10:54 PM,48.9,33.1,54,30.25,10.0,East,4.6,-,N/A,,Clear,100,2013-12-26 06:54:00
11:54 PM,48.0,32.0,54,30.24,10.0,Calm,Calm,-,N/A,,Clear,0,2013-12-26 07:54:00